• In Czech Republic
  • List of Countries
  • For 7 days
  • Water Temperature
  • Satellite Maps
  • Weather Map
  • Weather Widgets
  • user-avatar
    Login

    Hourly Weather Maaseik

    Today, 21 October, Saturday

    Time Temperature Precipitation Wind Pressure Humidity
    00:00 +11°C° 0 mm 4 mps 757 mmHg 79%
    01:00 +11°C° 0 mm 4 mps 757 mmHg 78%
    02:00 +11°C° 0 mm 4 mps 757 mmHg 78%
    03:00 +11°C° 0 mm 4 mps 756 mmHg 77%
    04:00 +11°C° 0 mm 4 mps 756 mmHg 78%
    05:00 +12°C° 0 mm 4 mps 756 mmHg 79%
    06:00 +12°C° 0 mm 5 mps 755 mmHg 80%
    07:00 +13°C° 0.1 mm 5 mps 755 mmHg 81%
    08:00 +14°C° 0.1 mm 5 mps 755 mmHg 83%
    09:00 +15°C° 0.1 mm 5 mps 755 mmHg 84%
    10:00 +15°C° 0.3 mm 5 mps 755 mmHg 84%
    11:00 +15°C° 0.3 mm 5 mps 755 mmHg 84%
    12:00 +15°C° 0.3 mm 5 mps 755 mmHg 84%
    13:00 +16°C° 0.2 mm 5 mps 755 mmHg 78%
    14:00 +16°C° 0.2 mm 5 mps 755 mmHg 73%
    15:00 +16°C° 0.2 mm 5 mps 755 mmHg 68%
    16:00 +15°C° 0 mm 5 mps 755 mmHg 69%
    17:00 +14°C° 0 mm 5 mps 755 mmHg 70%
    18:00 +13°C° 0 mm 4 mps 756 mmHg 71%
    19:00 +12°C° 0 mm 5 mps 756 mmHg 71%
    20:00 +12°C° 0 mm 5 mps 756 mmHg 70%
    21:00 +11°C° 0 mm 6 mps 756 mmHg 70%
    22:00 +10°C° 0 mm 6 mps 755 mmHg 70%
    23:00 +10°C° 0 mm 7 mps 755 mmHg 71%

    Tomorrow, 22 October, Sunday

    Time Temperature Precipitation Wind Pressure Humidity
    00:00 +10°C° 0 mm 7 mps 755 mmHg 71%
    01:00 +10°C° 0 mm 7 mps 755 mmHg 72%
    02:00 +9°C° 0 mm 7 mps 755 mmHg 73%
    03:00 +9°C° 0 mm 8 mps 755 mmHg 74%
    04:00 +9°C° 0 mm 7 mps 755 mmHg 75%
    05:00 +9°C° 0 mm 7 mps 755 mmHg 75%
    06:00 +9°C° 0 mm 7 mps 755 mmHg 76%
    07:00 +9°C° 0.2 mm 7 mps 756 mmHg 76%
    08:00 +9°C° 0.2 mm 7 mps 756 mmHg 76%
    09:00 +10°C° 0.2 mm 7 mps 756 mmHg 77%
    10:00 +10°C° 0.2 mm 7 mps 756 mmHg 77%
    11:00 +10°C° 0.2 mm 7 mps 756 mmHg 77%
    12:00 +10°C° 0.2 mm 7 mps 756 mmHg 77%
    13:00 +10°C° 0.6 mm 7 mps 756 mmHg 79%
    14:00 +10°C° 0.6 mm 6 mps 756 mmHg 80%
    15:00 +10°C° 0.6 mm 6 mps 756 mmHg 82%
    16:00 +9°C° 0.1 mm 6 mps 757 mmHg 83%
    17:00 +9°C° 0.1 mm 5 mps 757 mmHg 84%
    18:00 +8°C° 0.1 mm 5 mps 758 mmHg 85%
    19:00 +8°C° 0 mm 5 mps 758 mmHg 84%
    20:00 +8°C° 0 mm 5 mps 758 mmHg 83%
    21:00 +8°C° 0 mm 5 mps 759 mmHg 83%
    22:00 +8°C° 0 mm 5 mps 759 mmHg 83%
    23:00 +8°C° 0 mm 5 mps 759 mmHg 83%

    Day after tomorrow, 23 October, Monday

    Time Temperature Precipitation Wind Pressure Humidity
    00:00 +8°C° 0 mm 5 mps 759 mmHg 82%
    01:00 +8°C° 0 mm 5 mps 759 mmHg 83%
    02:00 +8°C° 0 mm 5 mps 759 mmHg 84%
    03:00 +8°C° 0 mm 5 mps 759 mmHg 85%
    04:00 +8°C° 0.1 mm 5 mps 760 mmHg 85%
    05:00 +9°C° 0.1 mm 5 mps 760 mmHg 86%
    06:00 +9°C° 0.1 mm 5 mps 760 mmHg 86%
    07:00 +10°C° 0 mm 5 mps 761 mmHg 83%
    08:00 +10°C° 0 mm 5 mps 761 mmHg 81%
    09:00 +12°C° 0 mm 5 mps 761 mmHg 78%
    10:00 +12°C° 0.1 mm 5 mps 762 mmHg 75%
    11:00 +13°C° 0.1 mm 5 mps 762 mmHg 73%
    12:00 +14°C° 0.1 mm 5 mps 762 mmHg 70%
    13:00 +14°C° 0.1 mm 5 mps 762 mmHg 73%
    14:00 +13°C° 0.1 mm 4 mps 762 mmHg 77%
    15:00 +13°C° 0.1 mm 4 mps 763 mmHg 80%
    16:00 +12°C° 0.1 mm 4 mps 763 mmHg 84%
    17:00 +12°C° 0.1 mm 3 mps 763 mmHg 89%
    18:00 +11°C° 0.1 mm 3 mps 763 mmHg 93%
    19:00 +11°C° 0.1 mm 3 mps 764 mmHg 93%
    20:00 +12°C° 0.1 mm 2 mps 764 mmHg 93%
    21:00 +12°C° 0.1 mm 2 mps 764 mmHg 94%
    22:00 +12°C° 0.1 mm 2 mps 764 mmHg 94%
    23:00 +12°C° 0.1 mm 2 mps 764 mmHg 94%

    24 October, Tuesday

    Time Temperature Precipitation Wind Pressure Humidity
    00:00 +12°C° 0.1 mm 2 mps 764 mmHg 94%
    01:00 +12°C° 0 mm 2 mps 764 mmHg 94%
    02:00 +12°C° 0 mm 1 mps 764 mmHg 94%
    03:00 +12°C° 0 mm 1 mps 764 mmHg 95%
    04:00 +12°C° 0 mm 1 mps 765 mmHg 95%
    05:00 +12°C° 0 mm 2 mps 765 mmHg 95%
    06:00 +12°C° 0 mm 2 mps 765 mmHg 95%
    07:00 +13°C° 0.1 mm 2 mps 765 mmHg 93%
    08:00 +14°C° 0.1 mm 2 mps 765 mmHg 92%
    09:00 +14°C° 0.1 mm 2 mps 766 mmHg 90%
    10:00 +15°C° 0 mm 2 mps 766 mmHg 87%
    11:00 +16°C° 0 mm 2 mps 766 mmHg 84%
    12:00 +17°C° 0 mm 2 mps 766 mmHg 81%
    13:00 +17°C° 0 mm 2 mps 766 mmHg 82%
    14:00 +17°C° 0 mm 2 mps 766 mmHg 84%
    15:00 +17°C° 0 mm 2 mps 766 mmHg 85%
    16:00 +17°C° 0 mm 2 mps 766 mmHg 88%
    17:00 +16°C° 0 mm 2 mps 766 mmHg 91%
    18:00 +15°C° 0 mm 2 mps 766 mmHg 94%
    19:00 +15°C° 0 mm 2 mps 766 mmHg 94%
    20:00 +15°C° 0 mm 2 mps 767 mmHg 94%
    21:00 +15°C° 0 mm 2 mps 767 mmHg 94%
    22:00 +15°C° 0.1 mm 2 mps 767 mmHg 93%
    23:00 +15°C° 0.1 mm 2 mps 767 mmHg 93%

    25 October, Wednesday

    Time Temperature Precipitation Wind Pressure Humidity
    00:00 +15°C° 0.1 mm 2 mps 767 mmHg 92%
    01:00 +15°C° 0 mm 2 mps 767 mmHg 92%
    02:00 +15°C° 0 mm 2 mps 767 mmHg 93%
    03:00 +15°C° 0 mm 2 mps 767 mmHg 93%
    04:00 +15°C° 0 mm 2 mps 767 mmHg 93%
    05:00 +14°C° 0 mm 2 mps 767 mmHg 93%
    06:00 +14°C° 0 mm 2 mps 767 mmHg 93%
    07:00 +15°C° 0.2 mm 2 mps 767 mmHg 91%
    08:00 +15°C° 0.2 mm 2 mps 768 mmHg 90%
    09:00 +16°C° 0.2 mm 2 mps 768 mmHg 88%
    10:00 +16°C° 0.1 mm 2 mps 768 mmHg 86%
    11:00 +17°C° 0.1 mm 2 mps 768 mmHg 83%
    12:00 +19°C° 0.1 mm 1 mps 768 mmHg 80%
    13:00 +19°C° 0 mm 1 mps 767 mmHg 80%
    14:00 +19°C° 0 mm 1 mps 767 mmHg 79%
    15:00 +20°C° 0 mm 1 mps 767 mmHg 79%
    16:00 +19°C° 0 mm 1 mps 767 mmHg 82%
    17:00 +18°C° 0 mm 1 mps 768 mmHg 85%
    18:00 +16°C° 0 mm 1 mps 768 mmHg 89%
    19:00 +15°C° 0 mm 2 mps 768 mmHg 89%
    20:00 +15°C° 0 mm 2 mps 768 mmHg 89%
    21:00 +15°C° 0 mm 2 mps 769 mmHg 89%
    22:00 +14°C° 0 mm 2 mps 769 mmHg 88%
    23:00 +14°C° 0 mm 2 mps 769 mmHg 88%

    26 October, Thursday

    Time Temperature Precipitation Wind Pressure Humidity
    00:00 +13°C° 0 mm 2 mps 769 mmHg 87%
    01:00 +13°C° 0 mm 2 mps 769 mmHg 85%
    02:00 +13°C° 0 mm 2 mps 768 mmHg 83%
    03:00 +12°C° 0 mm 2 mps 768 mmHg 81%
    04:00 +12°C° 0 mm 2 mps 768 mmHg 79%
    05:00 +12°C° 0 mm 2 mps 768 mmHg 77%
    06:00 +12°C° 0 mm 2 mps 768 mmHg 74%
    07:00 +13°C° 0 mm 2 mps 768 mmHg 70%
    08:00 +13°C° 0 mm 3 mps 769 mmHg 65%
    09:00 +14°C° 0 mm 3 mps 769 mmHg 60%
    10:00 +17°C° 0 mm 3 mps 769 mmHg 56%
    11:00 +18°C° 0 mm 3 mps 769 mmHg 52%
    12:00 +19°C° 0 mm 3 mps 768 mmHg 48%
    13:00 +19°C° 0 mm 3 mps 768 mmHg 51%
    14:00 +19°C° 0 mm 2 mps 768 mmHg 54%
    15:00 +18°C° 0 mm 2 mps 768 mmHg 57%
    16:00 +17°C° 0 mm 3 mps 768 mmHg 59%
    17:00 +16°C° 0 mm 3 mps 768 mmHg 61%
    18:00 +14°C° 0 mm 3 mps 768 mmHg 64%
    19:00 +13°C° 0 mm 3 mps 769 mmHg 63%
    20:00 +13°C° 0 mm 3 mps 769 mmHg 62%
    21:00 +12°C° 0 mm 3 mps 769 mmHg 61%
    22:00 +13°C° 0 mm 2 mps 769 mmHg 60%
    23:00 +12°C° 0 mm 2 mps 769 mmHg 58%
    Show more